Regional Weather Roundup
Issued by NWS

Home | Current Version | Previous Version | Text Only | Print | Product List | Glossary On
Versions: 1 2 3 4 5 6 7 8 9 10 11 12 13 14 15 16 17 18 19 20 21 22 23 24 25 26 27 28 29 30 31 32 33 34 35 36 37 38 39 40 41 42 43 44 45 46 47 48 49 50
000
ASUS43 KTOP 250208
RWRKS

WEATHER ROUNDUP FOR KANSAS
NATIONAL WEATHER SERVICE GOODLAND KS
900 PM CDT WED AUG 24 2016

NOTE:  "FAIR" INDICATES FEW OR NO CLOUDS BELOW 12,000 FEET WITH NO
SIGNIFICANT WEATHER AND/OR OBSTRUCTIONS TO VISIBILITY.

KSZ001>006-013>018-027>032-041>047-250300-
NORTHWEST KANSAS

CITY           SKY/WX    TMP DP  RH WIND       PRES   REMARKS
GOODLAND       PTCLDY    61  48  62 NE6       30.16S
HAYS           CLOUDY    64  54  68 NE9       30.08R
HILL CITY      CLOUDY    63  56  78 NE6       30.11S
RUSSELL        MOCLDY    63  60  90 N9        30.06R
$$

KSZ061>065-074>080-084>089-250300-
SOUTHWEST KANSAS

CITY           SKY/WX    TMP DP  RH WIND       PRES   REMARKS
DODGE CITY     CLOUDY    69  62  78 N12       30.05R
ELKHART          N/A     64  59  84 SE5         N/A
GARDEN CITY    MOCLDY    68  59  73 NE17      30.07R
GREAT BEND     CLOUDY    70  61  73 NE6       30.05R
LIBERAL        PTCLDY    70  61  73 NW5       30.05S
PRATT          PTCLDY    72  66  81 NE7       30.03R
$$

KSZ066>073-081>083-090>101-250300-
SOUTHEAST KANSAS

CITY           SKY/WX    TMP DP  RH WIND       PRES   REMARKS
CHANUTE        PTCLDY    85  68  56 SW13      30.00R
COFFEYVILLE    PTCLDY    87  67  51 S14       29.97R
HUTCHINSON     CLOUDY    74  68  81 N9        30.01R
NEWTON         CLOUDY    71  70  96 N5        30.02R
PARSONS        MOCLDY    85  67  54 S6        29.99R
WICHITA INTL   MOCLDY    76  69  79 SE7       30.00R
WICHITA JABRA  CLOUDY    72  70  93 SE5       30.01R
WICHITA MCCONL CLOUDY    76  67  73 E5        30.00R
WINFIELD       CLOUDY    75  68  78 SE6       29.99F
$$

KSZ007>012-019>026-033>040-048>060-102>105-250300-
NORTHEAST KANSAS

CITY           SKY/WX    TMP DP  RH WIND       PRES   REMARKS
CONCORDIA      CLOUDY    63  59  87 N7        30.07R
EMPORIA        CLOUDY    73  71  93 N6        30.00R
LAWRENCE       LGT RAIN  72  32  23 MISG      30.00R
MANHATTAN      CLOUDY    71  64  78 NE10      30.01S
MARYSVILLE     CLOUDY    64  63  94 N7        30.05R
OLATHE IND     TSTM      73  69  87 W12       30.03R FOG
OLATHE EXE     TSTM      72  68  87 N12       29.96F FOG
SALINA         PTCLDY    72  63  73 N6        30.04R
TOPEKA BILLARD LGT RAIN  72  70  93 N6        29.99R
TOPEKA FORBES  HVY RAIN  73  70  90 N5        29.99R
$$




USA.gov is the U.S. government's official web portal to all federal, state and local government web resources and services.